Back to catalog

STARLINK-35704

AliveCommunicationsVLEO
NORAD 66221·PAYLOAD·🇺🇸 United States

Launched Oct 28, 2025 from Vandenberg Space Force Base

Loading…

Next Passes (next 24 hours)

TLE

FreshSource: CelesTrak SupGP

Epoch: Sep 14, 2026, 21:03 UTC

1 66221C 25244R   26257.87756944  .00053728  00000+0  15874-2 0  2574
2 66221  53.1600  69.8353 0000937  91.4231 269.2706 15.34363684    13

Track STARLINK-35704 in real time with AllMySat

Download on the App Store